Calvi, France

1:00 PM CEST on March 26, 2017 (GMT +0200)
Saint Catherine

Weather History for LFKC - November, 2012

Change the Weather History Date:

Monday, November 19, 2012

  Actual Average Record
Temperature  
Mean Temperature 58 °F -  
Max Temperature 62 °F 57 °F 68 °F (2003)
Min Temperature 55 °F 46 °F 39 °F (2005)
Degree Days  
Heating Degree Days 6    
Growing Degree Days 8 (Base 50)    
Moisture  
Dew Point 54 °F    
Average Humidity 83    
Maximum Humidity 94    
Minimum Humidity 72    
Precipitation  
Precipitation 0.00 in - - ()
Sea Level Pressure  
Sea Level Pressure 29.87 in    
Wind  
Wind Speed 6 mph ()    
Max Wind Speed 13 mph    
Max Gust Speed -    
Visibility 6.1 miles    
Events Rain    
Averages and records for this station are not official NWS values.
T = Trace of Precipitation, MM = Missing Value Source: Averaged Metar Reports

Daily Weather History Graph

Daily Weather History Graph

Search for Another Location

Airport or City:

Trip Planner

Search our weather history database for the weather conditions in past years. The results will help you decide how hot, cold, wet, or windy it might be!

Date:

Astronomy

Nov. 19, 2012 Rise Set
Actual Time 7:21 AM CET 4:58 PM CET
Civil Twilight 6:50 AM CET 5:29 PM CET
Nautical Twilight 6:16 AM CET 6:03 PM CET
Astronomical Twilight 5:42 AM CET 6:37 PM CET
Moon 12:12 PM CET (11/19) 11:10 PM CET (11/19)
Length of Visible Light 10h 38m
Length of Day
9h 37m
Waxing Crescent, 38% of the Moon is Illuminated
Nov 19
Waxing Crescent
Nov 20
First Quarter
Nov 28
Full
Dec 6
Last Quarter
Dec 13
New

Hourly Weather History & Observations

Time (CET) Temp. Dew Point Humidity Pressure Visibility Wind Dir Wind Speed Gust Speed Precip Events Conditions
7:00 AM 57.2 °F 55.4 °F 94% 29.86 in 4.3 mi Calm Calm - N/A   Mostly Cloudy
7:30 AM 55.4 °F 53.6 °F 94% 29.86 in 6.2 mi SSE 3.5 mph - N/A   Mostly Cloudy
8:00 AM 55.4 °F 53.6 °F 94% 29.86 in 6.2 mi Variable 2.3 mph - N/A   Mostly Cloudy
8:30 AM 57.2 °F 55.4 °F 94% 29.86 in 6.2 mi North 4.6 mph - N/A   Mostly Cloudy
9:00 AM 57.2 °F 55.4 °F 94% 29.86 in 6.2 mi NE 5.8 mph - N/A   Overcast
9:30 AM 59.0 °F 55.4 °F 88% 29.86 in 6.2 mi NNE 3.5 mph - N/A   Overcast
10:00 AM 59.0 °F 53.6 °F 82% 29.86 in 6.2 mi North 6.9 mph - N/A   Overcast
10:30 AM 59.0 °F 55.4 °F 88% 29.89 in 6.2 mi North 8.1 mph - N/A   Scattered Clouds
11:00 AM 60.8 °F 53.6 °F 77% 29.89 in 6.2 mi NNE 10.4 mph - N/A   Overcast
11:30 AM 60.8 °F 53.6 °F 77% 29.89 in 6.2 mi NNE 10.4 mph - N/A   Mostly Cloudy
12:00 PM 60.8 °F 55.4 °F 82% 29.86 in 6.2 mi NNE 9.2 mph - N/A   Mostly Cloudy
12:30 PM 62.6 °F 55.4 °F 77% 29.86 in 6.2 mi NNE 11.5 mph - N/A   Mostly Cloudy
1:00 PM 62.6 °F 53.6 °F 72% 29.86 in 6.2 mi NNE 12.7 mph - N/A   Mostly Cloudy
1:30 PM 60.8 °F 53.6 °F 77% 29.86 in 6.2 mi NNE 11.5 mph - N/A   Mostly Cloudy
2:00 PM 60.8 °F 53.6 °F 77% 29.86 in 6.2 mi North 10.4 mph - N/A   Mostly Cloudy
2:30 PM 62.6 °F 55.4 °F 77% 29.86 in 6.2 mi NNE 10.4 mph - N/A   Mostly Cloudy
3:00 PM 60.8 °F 53.6 °F 77% 29.86 in 6.2 mi NNE 12.7 mph - N/A   Mostly Cloudy
3:30 PM 60.8 °F 53.6 °F 77% 29.86 in 6.2 mi North 12.7 mph - N/A   Mostly Cloudy
4:00 PM 60.8 °F 53.6 °F 77% 29.86 in 6.2 mi North 11.5 mph - N/A   Mostly Cloudy
4:30 PM 60.8 °F 53.6 °F 77% 29.86 in 6.2 mi NNE 6.9 mph - N/A   Mostly Cloudy
5:00 PM 59.0 °F 53.6 °F 82% 29.86 in 6.2 mi NNE 9.2 mph - N/A Rain Light Rain
5:30 PM 59.0 °F 53.6 °F 82% 29.89 in 6.2 mi NNE 5.8 mph - N/A   Mostly Cloudy